[[{"header":{"parameterUnit":"m.s-1","parameterCategory":1,"la1":30.2992,"la2":30.254,"lo1":-89.0895,"lo2":-89.0443,"dy":0.0025,"dx":0.0025,"nx":19,"ny":19,"refTime":"2026-04-25T09:00:00:Z","depth":0,"parameterNumber":2,"parameterNumberName":"U-component_of_WINDS"},"data":[0,0,0,-0.8403,-0.8405,-0.8498,-0.8498,-0.8603,-0.8604,0,0,0,0,0,0,0,0,0,0,0,-0.8367,-0.8367,-0.8403,-0.8405,-0.8498,-0.8498,-0.8603,-0.8604,0,0,0,0,0,0,0,0,0,0,0,-0.8367,-0.8367,-0.8368,-0.8406,-0.8498,-0.8498,-0.8602,-0.8538,0,0,0,0,0,0,0,0,0,0,-0.845,-0.8408,-0.8367,-0.8368,-0.8406,-0.8498,-0.8498,-0.8535,-0.8542,-0.8555,0,-0.8563,0,-0.8585,-0.861,-0.861,0,0,0,-0.8412,-0.8402,-0.8435,-0.8368,-0.8407,-0.8497,-0.8458,-0.8539,-0.8547,-0.8564,-0.8565,-0.8569,-0.8587,-0.861,-0.8611,-0.8662,-0.8662,0,0,-0.8407,-0.8379,-0.8429,-0.8439,-0.8424,-0.8455,-0.8461,-0.8544,-0.8543,-0.8565,-0.8572,-0.8588,-0.8611,-0.8611,-0.8663,-0.8662,0,0,0,-0.8388,-0.8375,-0.8407,-0.8435,-0.8452,-0.8457,-0.8464,-0.854,-0.8552,-0.8573,-0.859,-0.8611,-0.8612,-0.8663,-0.8662,-0.8632,0,0,0,-0.8385,-0.8364,-0.8404,-0.8388,-0.8451,-0.8497,-0.8458,-0.8547,-0.8557,-0.8589,-0.8611,-0.8613,-0.8663,-0.8663,-0.8633,-0.8622,0,0,0,-0.8364,-0.8362,-0.8372,-0.8386,-0.8425,-0.8497,-0.8514,-0.8549,-0.8567,-0.861,-0.8614,-0.8663,-0.8663,-0.8634,-0.8624,-0.8628,0,0,0,-0.8334,-0.8343,-0.8371,-0.8388,-0.8424,-0.8477,-0.8514,-0.8555,-0.8588,-0.8612,-0.8663,-0.8662,-0.8634,-0.8625,-0.8628,-0.8626,-0.8622,0,0,-0.833,-0.8342,-0.8354,-0.8382,-0.8422,-0.8465,-0.8501,-0.8559,-0.8588,-0.8636,-0.8638,-0.8632,-0.8624,-0.8628,-0.8611,-0.8608,0,0,0,-0.8343,-0.8352,-0.8369,-0.8399,-0.8443,-0.848,-0.8535,-0.8556,-0.8598,-0.8607,-0.8636,-0.8631,-0.8635,-0.8635,-0.8633,-0.8638,-0.8661,-0.8661,-0.8661,-0.8298,-0.8335,-0.8358,-0.8407,-0.8436,-0.8493,-0.852,-0.8559,-0.8588,-0.8594,-0.8609,-0.8594,-0.8593,-0.8591,-0.8596,-0.861,-0.861,-0.861,-0.861,-0.8296,-0.8314,-0.8353,-0.8389,-0.8429,-0.846,-0.8515,-0.8535,-0.857,-0.8586,-0.8591,-0.8605,-0.8586,-0.8593,-0.8608,-0.8608,-0.8609,-0.8609,-0.8609,-0.8271,-0.8286,-0.8312,-0.836,-0.8393,-0.8442,-0.8474,-0.8509,-0.8543,-0.8548,-0.8567,-0.8568,-0.8573,-0.8555,-0.8555,-0.8554,-0.8554,-0.8554,-0.8554,-0.8234,-0.8264,-0.8287,-0.8334,-0.8359,-0.8395,-0.8452,-0.8478,-0.8515,-0.8538,-0.8538,-0.8567,-0.8577,-0.8579,-0.8554,-0.8554,-0.8554,-0.8554,-0.8554,-0.8219,-0.8228,-0.8262,-0.8287,-0.8346,-0.8377,-0.8421,-0.847,-0.8496,-0.851,-0.8539,-0.854,-0.8555,-0.8557,-0.8559,-0.853,-0.853,-0.853,-0.853,-0.8198,-0.8209,-0.8252,-0.8289,-0.8329,-0.8373,-0.8411,-0.8456,-0.8503,-0.8522,-0.8531,-0.8536,-0.8537,-0.8552,-0.8554,-0.8556,-0.8527,-0.8527,-0.8527,-0.8191,-0.8207,-0.8233,-0.8279,-0.8328,-0.8369,-0.8406,-0.8447,-0.8503,-0.8528,-0.8537,-0.8537,-0.8547,-0.8547,-0.8572,-0.8575,-0.858,0,0]},{"header":{"parameterUnit":"m.s-1","parameterCategory":1,"la1":30.2992,"la2":30.254,"lo1":-89.0895,"lo2":-89.0443,"dy":0.0025,"dx":0.0025,"nx":19,"ny":19,"refTime":"2026-04-25T09:00:00:Z","depth":0,"parameterNumber":3,"parameterNumberName":"V-component_of_WINDS"},"data":[0,0,0,3.305,3.3051,3.3079,3.3079,3.3125,3.3126,0,0,0,0,0,0,0,0,0,0,0,3.3048,3.3048,3.305,3.3051,3.3079,3.3079,3.3125,3.3126,0,0,0,0,0,0,0,0,0,0,0,3.3047,3.3048,3.3049,3.3051,3.3079,3.3079,3.3125,3.31,0,0,0,0,0,0,0,0,0,0,3.3071,3.3075,3.3048,3.3049,3.3051,3.3079,3.3079,3.3099,3.3102,3.3117,0,3.3132,0,3.313,3.313,3.313,0,0,0,3.3046,3.3072,3.3075,3.3049,3.3051,3.3079,3.3065,3.31,3.3104,3.3121,3.3133,3.3134,3.3131,3.313,3.313,3.3235,3.3236,0,0,3.3044,3.3056,3.3072,3.3077,3.3074,3.3064,3.3066,3.3102,3.3116,3.3133,3.3135,3.3132,3.313,3.3131,3.3234,3.3235,0,0,0,3.3043,3.3055,3.3056,3.3076,3.308,3.3065,3.3067,3.3114,3.3114,3.3136,3.3132,3.3131,3.3132,3.3234,3.3235,3.3281,0,0,0,3.3042,3.3054,3.3056,3.3063,3.308,3.3098,3.3079,3.3111,3.3115,3.3132,3.3131,3.3132,3.3233,3.3234,3.3278,3.33,0,0,0,3.3044,3.3054,3.3061,3.3064,3.3076,3.3097,3.3098,3.3112,3.3113,3.313,3.3132,3.3232,3.3234,3.3275,3.3296,3.3331,0,0,0,3.3049,3.3101,3.3062,3.3119,3.3076,3.3126,3.3098,3.3134,3.3154,3.3131,3.3233,3.3235,3.3274,3.3293,3.3328,3.3361,3.3376,0,0,3.3121,3.311,3.3143,3.3109,3.3168,3.312,3.3187,3.3194,3.3184,3.3219,3.3221,3.3279,3.3295,3.333,3.3461,3.3473,0,0,0,3.317,3.3194,3.3207,3.3227,3.3235,3.3243,3.3239,3.3242,3.3271,3.3205,3.3301,3.3311,3.3331,3.3346,3.3356,3.3372,3.3243,3.3242,3.3242,3.3288,3.3274,3.3328,3.3318,3.3338,3.3335,3.3349,3.3352,3.3332,3.3356,3.3365,3.3446,3.3464,3.3472,3.3489,3.3383,3.3383,3.3383,3.3383,3.3392,3.3423,3.3397,3.3439,3.3424,3.3459,3.3458,3.3443,3.3473,3.3437,3.3454,3.3415,3.3486,3.35,3.3386,3.3386,3.3385,3.3385,3.3385,3.3466,3.3479,3.3482,3.3511,3.3534,3.3523,3.3554,3.354,3.3526,3.3543,3.3551,3.355,3.3546,3.3548,3.3549,3.3549,3.3549,3.3549,3.3549,3.3541,3.3544,3.3572,3.3585,3.3597,3.361,3.3609,3.3619,3.3627,3.3615,3.3615,3.3592,3.3496,3.3471,3.3554,3.3553,3.3552,3.3552,3.3552,3.3649,3.3623,3.3665,3.3677,3.3693,3.3717,3.3699,3.3723,3.373,3.3745,3.372,3.3652,3.3639,3.3631,3.361,3.3723,3.3723,3.3723,3.3723,3.371,3.3703,3.3744,3.3764,3.3782,3.3771,3.382,3.3819,3.3815,3.3818,3.38,3.3772,3.3764,3.3756,3.3745,3.3725,3.3865,3.3866,3.3866,3.3775,3.377,3.3814,3.381,3.3821,3.3831,3.3876,3.39,3.3889,3.3871,3.382,3.3814,3.3769,3.3755,3.3734,3.3717,3.3681,0,0]}]]